FW6583 Weather Reports


Display with metric or nautical units.
time (UTC)temp
F
wind
direction
speed
MPH
gust
MPH
rain 1hr
in
rain 24hr
in
rain mn
in
humidity
%
barometer
mb
20200402081039 33 0 0.0 1.0 0.00 0.15 0.00 73 1016.4
20200402080525 33 0 0.0 0.0 0.00 0.15 0.00 73 1016.4
20200402080124 33 0 0.0 0.0 0.00 0.15 0.00 72 1016.5
20200402075521 33 0 0.0 1.0 0.00 0.16 0.00 72 1016.5
20200402075022 33 0 0.0 1.0 0.00 0.16 0.00 74 1016.5
20200402074618 34 0 0.0 0.0 0.00 0.16 0.00 74 1016.4
20200402074025 34 0 0.0 0.0 0.00 0.16 0.00 75 1016.4
20200402073525 34 0 0.0 0.0 0.00 0.16 0.00 70 1016.5
20200402073049 34 0 0.0 0.0 0.00 0.16 0.00 70 1016.3
20200402072532 34 0 0.0 0.0 0.00 0.16 0.00 72 1016.3
20200402072024 35 0 0.0 1.0 0.00 0.16 0.00 72 1016.2
20200402071620 35 0 0.0 1.0 0.00 0.16 0.00 68 1016.3
20200402071028 35 0 0.0 1.0 0.00 0.16 0.00 67 1016.3
20200402070523 35 0 0.0 0.0 0.00 0.16 0.00 67 1016.3
20200402070136 35 0 0.0 0.0 0.00 0.16 0.00 69 1016.4
20200402065525 36 0 0.0 0.0 0.00 0.18 0.00 68 1016.3
20200402065040 36 0 0.0 0.0 0.00 0.18 0.00 66 1016.4
20200402064849 36 0 0.0 1.0 0.00 0.18 0.00 65 1016.4
20200402064022 37 0 0.0 1.0 0.00 0.18 0.00 66 1016.3
20200402063532 37 0 0.0 1.0 0.00 0.18 0.00 67 1016.4
20200402063046 38 0 0.0 1.0 0.00 0.18 0.00 60 1016.4
20200402062533 38 118 0.0 1.0 0.00 0.18 0.00 59 1016.4
20200402062033 38 118 0.0 2.0 0.00 0.18 0.00 58 1016.4
20200402061557 38 84 1.0 2.0 0.00 0.18 0.00 60 1016.4
20200402061024 38 136 0.0 1.0 0.00 0.18 0.00 60 1016.5
20200402060535 38 0 0.0 1.0 0.00 0.18 0.00 60 1016.5
20200402060147 38 0 0.0 1.0 0.00 0.18 0.00 60 1016.5
20200402055525 38 136 0.0 1.0 0.00 0.20 0.00 60 1016.5
20200402055102 38 135 0.0 1.0 0.00 0.20 0.00 62 1016.5
20200402054613 38 168 0.0 0.0 0.00 0.20 0.00 62 1016.5
20200402054028 38 0 0.0 0.0 0.00 0.20 0.00 61 1016.3
20200402053525 38 0 0.0 1.0 0.00 0.20 0.00 62 1016.4
20200402053057 38 0 0.0 1.0 0.00 0.20 0.00 61 1016.3
20200402052529 38 184 0.0 0.0 0.00 0.20 0.00 61 1016.2
20200402052038 38 184 0.0 0.0 0.00 0.20 0.00 60 1016.2
20200402051611 38 186 0.0 0.0 0.00 0.20 0.00 60 1016.2
20200402051048 39 0 0.0 0.0 0.00 0.20 0.00 60 1016.1
20200402050531 39 186 0.0 0.0 0.00 0.20 0.00 59 1016.2
20200402050115 39 0 0.0 0.0 0.00 0.20 0.00 57 1016.1
20200402045524 39 0 0.0 1.0 0.00 0.23 0.00 56 1016.1
20200402045028 39 0 0.0 2.0 0.00 0.23 0.00 55 1016.3
20200402044531 40 0 0.0 2.0 0.00 0.23 0.00 56 1016.2
20200402044025 40 0 0.0 1.0 0.00 0.23 0.00 55 1016.1
20200402043522 40 70 0.0 1.0 0.00 0.23 0.00 54 1016.0
20200402043103 40 65 0.0 1.0 0.00 0.23 0.00 54 1016.0
20200402042532 40 65 0.0 1.0 0.00 0.23 0.00 54 1016.0
20200402042032 40 61 0.0 1.0 0.00 0.23 0.00 54 1016.0
20200402041534 41 62 0.0 2.0 0.00 0.23 0.00 54 1016.0
20200402041034 41 0 0.0 3.0 0.00 0.23 0.00 54 1016.0
20200402040544 41 64 1.0 3.0 0.00 0.23 0.00 55 1016.0
20200402040044 41 74 1.0 2.0 0.00 0.23 0.00 54 1016.0
20200402035524 41 0 0.0 2.0 0.00 0.25 0.23 55 1015.9
20200402035024 41 53 0.0 4.0 0.00 0.25 0.23 55 1015.9
20200402034613 42 59 1.0 4.0 0.00 0.25 0.23 54 1015.8
20200402034028 42 91 0.0 7.0 0.00 0.25 0.23 54 1015.8
20200402033524 42 34 1.0 7.0 0.00 0.25 0.23 54 1015.8
20200402033101 42 52 1.0 6.0 0.00 0.25 0.23 54 1015.7
20200402032534 42 349 2.0 6.0 0.00 0.25 0.23 56 1015.6
20200402032024 42 60 1.0 6.0 0.00 0.25 0.23 55 1015.7
20200402031524 43 318 1.0 6.0 0.00 0.25 0.23 57 1015.6
20200402031027 43 61 1.0 6.0 0.00 0.25 0.23 57 1015.5
20200402030524 43 195 2.0 6.0 0.00 0.25 0.23 57 1015.5
20200402030032 43 39 1.0 7.0 0.00 0.25 0.23 59 1015.5
20200402025524 43 299 3.0 7.0 0.00 0.28 0.23 59 1015.5
20200402025026 43 26 0.0 7.0 0.00 0.28 0.23 61 1015.3
20200402024603 44 309 2.0 7.0 0.00 0.28 0.23 60 1015.3
20200402024024 44 20 3.0 6.0 0.00 0.28 0.23 62 1015.2
20200402023533 44 26 1.0 6.0 0.00 0.28 0.23 66 1015.3
20200402023040 44 258 2.0 8.0 0.00 0.28 0.23 69 1015.2
20200402022524 44 306 2.0 8.0 0.00 0.28 0.23 70 1015.1
20200402022023 44 314 2.0 5.0 0.00 0.28 0.23 79 1015.1
20200402021551 44 117 0.0 3.0 0.00 0.28 0.23 87 1015.1
20200402021023 44 117 1.0 3.0 0.00 0.28 0.23 87 1015.0
20200402020524 44 288 0.0 1.0 0.00 0.28 0.23 88 1014.9
20200402020103 44 288 0.0 1.0 0.00 0.28 0.23 88 1015.0
20200402015528 44 309 0.0 2.0 0.00 0.32 0.23 88 1014.9
20200402015025 44 0 0.0 2.0 0.00 0.32 0.23 88 1014.9
20200402014536 44 311 0.0 2.0 0.00 0.32 0.23 88 1014.9
20200402014034 44 245 0.0 1.0 0.00 0.32 0.23 88 1014.8
20200402013522 44 269 1.0 1.0 0.00 0.32 0.23 88 1014.7
20200402013029 44 272 0.0 2.0 0.00 0.32 0.23 89 1014.7
20200402012525 44 271 1.0 2.0 0.00 0.32 0.23 89 1014.7
20200402012033 44 226 0.0 2.0 0.00 0.32 0.23 88 1014.6
20200402011526 44 0 0.0 2.0 0.00 0.32 0.23 88 1014.7
20200402011025 44 243 1.0 2.0 0.00 0.32 0.23 88 1014.5
20200402010530 44 274 1.0 1.0 0.00 0.32 0.23 88 1014.6
20200402010043 44 266 0.0 1.0 0.00 0.32 0.23 88 1014.3
20200402005526 44 279 0.0 1.0 0.00 0.34 0.23 88 1014.3
20200402005023 44 249 1.0 1.0 0.00 0.34 0.23 88 1014.1
20200402004626 44 277 0.0 2.0 0.00 0.34 0.23 88 1014.1
20200402004025 44 260 0.0 2.0 0.00 0.34 0.23 88 1013.9
20200402003525 44 297 0.0 1.0 0.00 0.34 0.23 88 1014.0
20200402003117 44 297 0.0 1.0 0.00 0.34 0.23 88 1013.8
20200402002523 44 0 0.0 1.0 0.00 0.34 0.23 88 1013.8
20200402002027 44 297 1.0 1.0 0.00 0.34 0.23 88 1013.7
20200402001527 44 262 0.0 1.0 0.00 0.34 0.23 88 1013.6
20200402001025 44 282 1.0 2.0 0.00 0.34 0.23 88 1013.6
20200402000526 44 305 1.0 4.0 0.00 0.34 0.23 87 1013.6
20200402000234 44 288 1.0 4.0 0.00 0.34 0.23 87 1013.5
20200401235529 44 290 1.0 3.0 0.00 0.34 0.23 87 1013.5
20200401235023 44 290 1.0 3.0 0.00 0.34 0.23 86 1013.3
20200401234528 44 301 1.0 2.0 0.00 0.34 0.23 87 1013.2
20200401234042 44 284 1.0 2.0 0.00 0.34 0.23 87 1013.2
20200401233525 44 274 1.0 2.0 0.00 0.34 0.23 88 1013.2
20200401233055 44 288 1.0 4.0 0.00 0.34 0.23 89 1013.1
20200401232532 44 296 1.0 4.0 0.00 0.34 0.23 89 1013.2
20200401232032 44 287 1.0 1.0 0.00 0.34 0.23 90 1013.1
20200401231550 44 359 0.0 2.0 0.00 0.34 0.23 90 1013.1
20200401231024 44 304 1.0 2.0 0.00 0.34 0.23 89 1013.0
20200401230523 44 272 1.0 2.0 0.00 0.34 0.23 89 1013.0
20200401225532 44 271 1.0 1.0 0.00 0.34 0.23 89 1012.8
20200401225033 44 271 1.0 1.0 0.01 0.34 0.23 89 1012.8
20200401224526 44 264 0.0 1.0 0.01 0.34 0.23 89 1012.7
20200401224026 44 263 0.0 2.0 0.02 0.34 0.23 90 1012.7
20200401223522 44 267 1.0 2.0 0.02 0.34 0.23 88 1012.5
20200401223047 44 217 1.0 2.0 0.02 0.34 0.23 87 1012.7
20200401222532 44 234 1.0 2.0 0.02 0.34 0.23 88 1012.6
20200401222029 44 261 0.0 1.0 0.02 0.34 0.23 87 1012.7
20200401221607 44 276 0.0 1.0 0.02 0.34 0.23 88 1012.6
20200401221022 44 0 0.0 1.0 0.02 0.34 0.23 87 1012.6
20200401220528 44 283 0.0 2.0 0.03 0.34 0.23 85 1012.4
20200401220033 44 284 1.0 3.0 0.09 0.34 0.23 83 1012.4
20200401215524 45 304 1.0 9.0 0.11 0.34 0.23 84 1012.6
20200401215025 45 51 3.0 9.0 0.11 0.33 0.22 82 1012.5
20200401214539 45 360 3.0 6.0 0.11 0.33 0.22 81 1012.5
20200401214027 46 68 2.0 8.0 0.10 0.32 0.21 81 1012.4
20200401213527 46 350 4.0 8.0 0.10 0.32 0.21 79 1012.2
20200401213040 46 267 2.0 3.0 0.10 0.32 0.21 89 1012.2
20200401212526 46 0 0.0 1.0 0.10 0.32 0.21 83 1012.1
20200401212031 46 0 0.0 1.0 0.10 0.32 0.21 82 1012.1
20200401211557 45 0 0.0 3.0 0.10 0.32 0.21 81 1012.1
20200401211027 46 0 1.0 4.0 0.10 0.32 0.21 81 1012.0
20200401210525 46 84 1.0 5.0 0.09 0.31 0.20 81 1011.9
20200401210110 47 45 1.0 7.0 0.02 0.24 0.13 76 1011.8
20200401205533 48 252 4.0 11.0 0.01 0.23 0.12 71 1011.8
20200401205024 49 9 4.0 11.0 0.00 0.22 0.11 69 1011.7
20200401204555 50 20 4.0 7.0 0.01 0.22 0.11 69 1011.6
20200401204026 50 298 2.0 8.0 0.01 0.22 0.11 69 1011.5
20200401203525 50 354 4.0 8.0 0.01 0.22 0.11 70 1011.5
20200401203131 49 28 2.0 7.0 0.01 0.22 0.11 75 1011.5
20200401202524 49 314 1.0 6.0 0.01 0.22 0.11 73 1011.8
20200401202033 48 3 3.0 6.0 0.01 0.22 0.11 75 1011.9
20200401201551 48 20 2.0 6.0 0.01 0.22 0.11 76 1011.8
20200401201035 48 279 3.0 5.0 0.01 0.22 0.11 75 1011.7
20200401200526 47 13 1.0 4.0 0.01 0.22 0.11 80 1011.7
20200401200056 47 329 0.0 2.0 0.01 0.22 0.11 86 1011.7
20200401195524 46 0 0.0 2.0 0.01 0.22 0.11 85 1011.7
20200401195031 46 245 0.0 5.0 0.01 0.22 0.11 86 1011.6
20200401194548 45 7 2.0 8.0 0.00 0.21 0.10 84 1011.8
20200401194029 45 304 4.0 9.0 0.00 0.21 0.10 82 1011.8
20200401193546 46 78 3.0 9.0 0.00 0.21 0.10 80 1011.7
20200401193104 47 32 4.0 11.0 0.00 0.21 0.10 76 1011.7
20200401192526 48 25 5.0 11.0 0.00 0.21 0.10 72 1011.6
20200401192023 50 29 4.0 9.0 0.00 0.21 0.10 66 1011.6
20200401191553 51 276 4.0 7.0 0.00 0.21 0.10 63 1011.3
20200401191029 51 46 2.0 5.0 0.00 0.21 0.10 63 1011.3
20200401190525 50 13 1.0 5.0 0.00 0.21 0.10 67 1011.4
20200401190035 50 357 2.0 7.0 0.00 0.21 0.10 66 1011.4
20200401185530 50 357 3.0 7.0 0.00 0.21 0.10 66 1011.4
20200401185026 50 314 2.0 4.0 0.00 0.21 0.10 69 1011.4
20200401184621 50 321 1.0 4.0 0.00 0.21 0.10 70 1011.5
20200401184031 50 27 2.0 6.0 0.00 0.21 0.10 69 1011.5
20200401183549 50 304 3.0 6.0 0.00 0.21 0.10 68 1011.4
20200401183036 50 293 2.0 5.0 0.00 0.21 0.10 71 1011.5
20200401182547 49 68 2.0 6.0 0.00 0.21 0.10 69 1011.6
20200401182031 49 56 3.0 6.0 0.00 0.21 0.10 72 1011.7
20200401181536 48 5 3.0 8.0 0.00 0.21 0.10 72 1011.8
20200401181028 49 352 4.0 8.0 0.00 0.21 0.10 71 1011.8
20200401180528 48 283 3.0 7.0 0.00 0.21 0.10 72 1011.8
20200401180112 49 293 3.0 7.0 0.00 0.21 0.10 73 1011.7
20200401175528 49 2 1.0 8.0 0.00 0.21 0.10 73 1011.7
20200401175026 48 304 3.0 8.0 0.00 0.21 0.10 73 1011.9
20200401174638 48 41 3.0 4.0 0.00 0.21 0.10 76 1011.9
20200401174024 48 330 0.0 4.0 0.00 0.21 0.10 79 1011.9
20200401173525 47 41 2.0 4.0 0.00 0.21 0.10 76 1012.0
20200401173045 47 82 2.0 3.0 0.00 0.21 0.10 77 1012.0
20200401172530 47 55 1.0 4.0 0.00 0.21 0.10 78 1012.0
20200401172030 46 30 2.0 4.0 0.00 0.21 0.10 79 1012.1
20200401171653 46 75 1.0 5.0 0.00 0.21 0.10 77 1012.1
20200401171026 46 66 2.0 5.0 0.00 0.21 0.10 77 1012.1
20200401170528 47 46 3.0 5.0 0.00 0.21 0.10 76 1012.1
20200401170059 47 348 2.0 4.0 0.00 0.21 0.10 75 1012.1
20200401165530 47 34 2.0 4.0 0.00 0.21 0.10 75 1012.1
20200401165025 47 93 0.0 4.0 0.00 0.21 0.10 78 1012.0
20200401164534 47 15 2.0 6.0 0.00 0.21 0.10 77 1012.1
20200401164032 47 284 2.0 6.0 0.00 0.21 0.10 77 1012.1
20200401163547 47 289 2.0 3.0 0.00 0.21 0.10 78 1012.0
20200401163042 46 4 1.0 4.0 0.00 0.21 0.10 78 1012.2
20200401162533 46 300 2.0 4.0 0.00 0.21 0.10 76 1012.3
20200401162039 46 301 1.0 3.0 0.00 0.21 0.10 78 1012.2
20200401161600 46 345 2.0 4.0 0.00 0.21 0.10 78 1012.3
20200401161031 46 24 1.0 4.0 0.00 0.21 0.10 81 1012.2
20200401160526 46 40 2.0 4.0 0.00 0.21 0.10 80 1012.3
20200401160040 46 347 1.0 2.0 0.00 0.21 0.10 83 1012.4
20200401155526 46 352 1.0 2.0 0.00 0.21 0.10 81 1012.3
20200401155024 45 135 0.0 2.0 0.00 0.21 0.10 81 1012.3
20200401154612 45 38 1.0 3.0 0.00 0.21 0.10 81 1012.3
20200401154027 45 307 2.0 3.0 0.00 0.21 0.10 83 1012.4
20200401153525 45 309 1.0 3.0 0.00 0.21 0.10 83 1012.3
20200401153057 45 7 1.0 2.0 0.00 0.21 0.10 83 1012.3
20200401152526 44 31 0.0 3.0 0.00 0.21 0.10 82 1012.2
20200401152038 44 1 1.0 3.0 0.00 0.21 0.10 82 1012.2
20200401151549 44 297 1.0 3.0 0.00 0.21 0.10 83 1012.2
20200401151026 44 18 1.0 1.0 0.00 0.21 0.10 83 1012.1
20200401150533 44 286 1.0 2.0 0.00 0.21 0.10 83 1012.1
20200401150041 44 32 0.0 2.0 0.00 0.21 0.10 84 1012.1
20200401145523 44 307 1.0 2.0 0.00 0.21 0.10 83 1012.1
20200401145034 44 261 0.0 1.0 0.00 0.21 0.10 85 1012.1
20200401144600 44 0 0.0 1.0 0.00 0.21 0.10 83 1012.2
20200401144041 44 0 0.0 2.0 0.00 0.21 0.10 85 1012.0
20200401143527 44 257 0.0 3.0 0.00 0.21 0.10 84 1012.0
20200401143025 44 307 1.0 3.0 0.00 0.21 0.10 85 1012.0
20200401142526 44 281 1.0 2.0 0.00 0.21 0.10 86 1012.0
20200401142032 44 312 0.0 1.0 0.00 0.21 0.10 87 1011.8
20200401141556 43 318 0.0 1.0 0.00 0.21 0.10 87 1011.7
20200401141025 43 42 0.0 1.0 0.00 0.21 0.10 85 1011.7
20200401140525 43 324 0.0 2.0 0.00 0.21 0.10 88 1011.7
20200401140125 43 0 0.0 2.0 0.00 0.21 0.10 86 1011.6
20200401135528 42 3 0.0 2.0 0.00 0.21 0.10 88 1011.5
20200401135024 42 308 0.0 2.0 0.00 0.21 0.10 89 1011.5
20200401134619 42 32 1.0 2.0 0.00 0.21 0.10 88 1011.4
20200401134024 42 8 1.0 2.0 0.00 0.21 0.10 89 1011.4
20200401133532 42 326 1.0 2.0 0.00 0.21 0.10 90 1011.3
20200401133119 42 0 0.0 1.0 0.00 0.21 0.10 91 1011.3
20200401132531 42 315 0.0 2.0 0.00 0.21 0.10 92 1011.1
20200401132025 42 311 1.0 2.0 0.00 0.21 0.10 91 1011.0
20200401131529 42 309 0.0 1.0 0.00 0.21 0.10 92 1011.1
20200401131026 42 25 0.0 1.0 0.00 0.21 0.10 93 1011.1
20200401130529 42 25 0.0 1.0 0.00 0.21 0.10 94 1011.0
20200401130030 42 6 0.0 1.0 0.00 0.21 0.10 93 1011.0
20200401125535 42 8 0.0 1.0 0.00 0.21 0.10 93 1011.0
20200401125025 41 11 0.0 1.0 0.00 0.21 0.10 94 1011.0
20200401124555 41 11 0.0 1.0 0.00 0.21 0.10 95 1010.9
20200401124025 41 318 0.0 0.0 0.00 0.21 0.10 95 1010.8
20200401123529 41 318 0.0 1.0 0.00 0.21 0.10 95 1010.8
20200401123140 41 318 0.0 1.0 0.00 0.21 0.10 95 1010.8
20200401122543 41 11 0.0 1.0 0.00 0.21 0.10 95 1010.9
20200401122031 41 0 0.0 1.0 0.00 0.21 0.10 95 1010.7
20200401121537 41 1 0.0 1.0 0.00 0.21 0.10 95 1010.6
20200401121039 41 0 0.0 1.0 0.00 0.21 0.10 96 1010.6
20200401120533 41 0 0.0 0.0 0.00 0.21 0.10 96 1010.5
20200401120226 41 0 0.0 0.0 0.00 0.21 0.10 96 1010.4
20200401115535 41 0 0.0 0.0 0.00 0.21 0.10 96 1010.4
20200401115052 40 0 0.0 0.0 0.00 0.21 0.10 96 1010.4
20200401114546 40 0 0.0 0.0 0.00 0.21 0.10 96 1010.2
20200401114024 40 0 0.0 0.0 0.00 0.21 0.10 96 1010.1
20200401113523 40 0 0.0 0.0 0.00 0.21 0.10 96 1010.2
20200401113034 40 0 0.0 0.0 0.00 0.21 0.10 96 1010.1
20200401112524 40 0 0.0 0.0 0.00 0.21 0.10 96 1010.0
20200401112023 40 0 0.0 0.0 0.00 0.21 0.10 96 1010.0
20200401111534 40 0 0.0 0.0 0.00 0.21 0.10 96 1009.9
20200401111033 40 0 0.0 0.0 0.00 0.21 0.10 96 1009.8
20200401110535 40 0 0.0 0.0 0.00 0.21 0.10 96 1009.8
20200401110045 40 0 0.0 0.0 0.00 0.21 0.10 96 1009.6
20200401105524 40 0 0.0 0.0 0.00 0.21 0.10 96 1009.6
20200401105025 40 0 0.0 0.0 0.00 0.21 0.10 96 1009.5
20200401104546 40 0 0.0 0.0 0.00 0.21 0.10 96 1009.5
20200401104025 40 0 0.0 0.0 0.00 0.21 0.10 96 1009.4
20200401103525 40 0 0.0 0.0 0.00 0.21 0.10 96 1009.3
20200401103043 40 0 0.0 0.0 0.00 0.21 0.10 96 1009.2
20200401102531 40 0 0.0 0.0 0.00 0.21 0.10 96 1009.2
20200401102045 40 0 0.0 0.0 0.00 0.21 0.10 96 1009.0
20200401101602 40 0 0.0 0.0 0.00 0.21 0.10 95 1009.1
20200401101030 40 0 0.0 0.0 0.00 0.21 0.10 95 1009.0
20200401100528 40 0 0.0 0.0 0.01 0.21 0.10 95 1009.1
20200401100115 40 0 0.0 0.0 0.01 0.21 0.10 95 1009.0
20200401095525 40 0 0.0 0.0 0.01 0.21 0.10 95 1009.0
20200401095025 40 0 0.0 0.0 0.01 0.21 0.10 95 1008.9
20200401094552 40 0 0.0 0.0 0.01 0.21 0.10 95 1009.0
20200401094026 40 0 0.0 0.0 0.01 0.21 0.10 95 1009.0
20200401093526 40 0 0.0 0.0 0.01 0.21 0.10 95 1008.9
20200401093049 40 0 0.0 0.0 0.01 0.21 0.10 95 1008.9
20200401092531 40 0 0.0 0.0 0.01 0.21 0.10 95 1008.9
20200401092034 40 0 0.0 0.0 0.01 0.21 0.10 95 1008.9
20200401091708 40 0 0.0 0.0 0.01 0.21 0.10 95 1008.9
20200401091024 40 0 0.0 0.0 0.01 0.21 0.10 95 1008.9
20200401090552 40 0 0.0 0.0 0.00 0.20 0.09 95 1008.9
20200401090031 40 0 0.0 0.0 0.01 0.20 0.09 95 1008.9
20200401085532 40 0 0.0 0.0 0.01 0.20 0.09 95 1008.8
20200401085027 40 0 0.0 0.0 0.01 0.20 0.09 95 1008.9
20200401084548 40 0 0.0 0.0 0.01 0.20 0.09 95 1008.9
20200401084029 40 0 0.0 0.0 0.01 0.20 0.09 95 1008.9
20200401083530 40 0 0.0 0.0 0.01 0.20 0.09 95 1008.9
20200401083131 40 0 0.0 0.0 0.02 0.20 0.09 95 1008.8
20200401082543 40 0 0.0 0.0 0.02 0.20 0.09 94 1008.8
20200401082037 40 0 0.0 0.0 0.02 0.20 0.09 94 1008.8
20200401081528 40 0 0.0 0.0 0.02 0.20 0.09 94 1008.8